Weather History for KPHP - May, 2013

Change the Weather History Date:

Tuesday, May 7, 2013

  Actual Average Record
Temperature  
Mean Temperature 60 °F 54 °F  
Max Temperature 76 °F 68 °F 92 °F (1963)
Min Temperature 43 °F 41 °F 26 °F (1951)
Degree Days  
Heating Degree Days 5 11  
Month to date heating degree days 141 86  
Since 1 July heating degree days 6891 6953  
Cooling Degree Days 0 1  
Month to date cooling degree days 0 2  
Year to date cooling degree days 0 5  
Growing Degree Days 9 (Base 50)    
Moisture  
Dew Point 42 °F    
Average Humidity 60    
Maximum Humidity 86    
Minimum Humidity 33    
Precipitation  
Precipitation 0.02 in 0.09 in 0.47 in (1978)
Month to date precipitation 0.02 0.66  
Year to date precipitation 3.20 4.55  
Sea Level Pressure  
Sea Level Pressure 29.88 in    
Wind  
Wind Speed 8 mph (SE)    
Max Wind Speed 28 mph    
Max Gust Speed 37 mph    
Visibility 10 miles    
Events Rain    
T = Trace of Precipitation, MM = Missing Value Source: NWS Daily Summary

Daily Weather History Graph

Daily Weather History Graph

Search for Another Location

Airport or City:

Trip Planner

Search our weather history database for the weather conditions in past years. The results will help you decide how hot, cold, wet, or windy it might be!

Date:

Astronomy

May. 07, 2013 Rise Set
Actual Time 5:29 AM MDT 7:57 PM MDT
Civil Twilight 4:56 AM MDT 8:29 PM MDT
Nautical Twilight 4:16 AM MDT 9:10 PM MDT
Astronomical Twilight 3:30 AM MDT 9:56 PM MDT
Moon 4:09 AM MDT (5/7) 5:55 PM MDT (5/7)
Length of Visible Light 15h 32m
Length of Day
14h 27m
Waning Crescent, 5% of the Moon is Illuminated
May 7
Waning Crescent
May 9
New
May 17
First Quarter
May 24
Full
May 31
Last Quarter

Hourly Weather History & Observations

Time (MDT) Temp. Windchill Dew Point Humidity Pressure Visibility Wind Dir Wind Speed Gust Speed Precip Events Conditions
12:55 AM 52.0 °F - 30.9 °F 45% 29.95 in 10.0 mi ENE 6.9 mph - N/A   Scattered Clouds
1:55 AM 48.0 °F - 30.9 °F 52% 29.94 in 10.0 mi ENE 5.8 mph - N/A   Scattered Clouds
2:55 AM 48.0 °F - 32.0 °F 54% 29.93 in 10.0 mi ENE 4.6 mph - N/A   Mostly Cloudy
3:55 AM 48.0 °F - 32.0 °F 54% 29.92 in 10.0 mi Calm Calm - N/A   Partly Cloudy
4:55 AM 45.0 °F 41.8 °F 32.0 °F 60% 29.92 in 10.0 mi East 5.8 mph - N/A   Partly Cloudy
5:55 AM 45.0 °F - 32.0 °F 60% 29.93 in 10.0 mi Calm Calm - N/A   Clear
6:55 AM 46.9 °F - 34.0 °F 61% 29.94 in 10.0 mi Calm Calm - N/A   Partly Cloudy
7:55 AM 54.0 °F - 37.0 °F 53% 29.93 in 10.0 mi SE 4.6 mph - N/A   Scattered Clouds
8:55 AM 60.1 °F - 39.0 °F 46% 29.91 in 10.0 mi South 6.9 mph - N/A   Overcast
9:55 AM 66.9 °F - 41.0 °F 39% 29.89 in 10.0 mi South 10.4 mph - N/A   Partly Cloudy
10:55 AM 70.0 °F - 43.0 °F 38% 29.88 in 10.0 mi SSE 8.1 mph - N/A   Mostly Cloudy
11:55 AM 73.0 °F - 44.1 °F 35% 29.86 in 10.0 mi South 11.5 mph 20.7 mph N/A   Mostly Cloudy
12:55 PM 73.0 °F - 43.0 °F 34% 29.83 in 10.0 mi South 6.9 mph 17.3 mph N/A   Overcast
1:55 PM 66.9 °F - 44.1 °F 44% 29.83 in 10.0 mi ESE 13.8 mph - 0.00 in Rain Light Rain
2:55 PM 60.1 °F - 46.9 °F 62% 29.86 in 10.0 mi ESE 16.1 mph - 0.00 in Rain Light Rain
3:02 PM 60.8 °F - 46.4 °F 59% 29.87 in 2.0 mi ESE 16.1 mph - 0.00 in Rain Light Rain
3:12 PM 59.0 °F - 48.2 °F 67% 29.86 in 10.0 mi ESE 12.7 mph - 0.00 in Rain Light Rain
3:55 PM 57.9 °F - 48.0 °F 70% 29.86 in 10.0 mi SE 16.1 mph 25.3 mph 0.01 in Rain Light Rain
4:55 PM 57.0 °F - 48.0 °F 72% 29.85 in 10.0 mi SSE 17.3 mph 25.3 mph 0.01 in   Mostly Cloudy
5:55 PM 59.0 °F - 48.9 °F 69% 29.83 in 10.0 mi SSE 15.0 mph - N/A   Scattered Clouds
6:55 PM 59.0 °F - 46.9 °F 64% 29.83 in 10.0 mi ESE 9.2 mph - N/A   Clear
7:55 PM 59.0 °F - 46.0 °F 62% 29.84 in 10.0 mi SSE 16.1 mph 29.9 mph 0.00 in Rain Light Rain
8:02 PM 59.0 °F - 44.6 °F 59% 29.87 in 10.0 mi ESE 9.2 mph - 0.00 in Rain Light Rain
8:55 PM 55.9 °F - 46.0 °F 69% 29.85 in 10.0 mi South 10.4 mph 20.7 mph 0.00 in   Mostly Cloudy
9:55 PM 54.0 °F - 46.9 °F 77% 29.86 in 10.0 mi South 15.0 mph - N/A   Mostly Cloudy
10:55 PM 52.0 °F - 46.0 °F 80% 29.86 in 10.0 mi North 3.5 mph - N/A   Clear
11:55 PM 48.9 °F - 44.1 °F 83% 29.87 in 10.0 mi Calm Calm - N/A   Clear